"Pseudo-MPEC" for C350N22

Created 2020 Sep 17 0:07:07 UT using Find_Orb

Click here for an explanation of pseudo-MPECs

 
 Astrometry: 
     C350N22  C2020 09 10.29782 23 35 25.62 +05 19 57.1    ~9A7q 21.2 GVNEOCPG96
     C350N22  C2020 09 10.30299 23 35 26.34 +05 20 24.4    ~9A7q 21.0 GVNEOCPG96
     C350N22  C2020 09 10.30817 23 35 27.07 +05 20 51.5    ~9A7q       VNEOCPG96
     C350N22  C2020 09 10.31333 23 35 27.73 +05 21 18.9    ~9A7q 21.3 GVNEOCPG96
     C350N22  C2020 09 10.43635 23 35 44.76 +05 32 03.1    ~9AAq 21.8 GVNEOCPV06
     C350N22  C2020 09 10.43836 23 35 45.07 +05 32 13.2    ~9AAq 21.2 GVNEOCPV06
     C350N22  C2020 09 10.44037 23 35 45.34 +05 32 24.1    ~9AAq 21.2 GVNEOCPV06
     C350N22  C2020 09 10.44238 23 35 45.63 +05 32 34.7    ~9AAq 21.3 GVNEOCPV06
     C350N22  C2020 09 16IgAstrometryPf[Cb?#,i9Z0QIU#2ur3redacted;6Xx:Nb7wOgcF51
     C350N22  C2020 09 160d*g2s'F*2o9PclickrKEhere9C[qBOE^@w3-:xq@(8-UsforS9+F51
     C350N22  C2020 09 16#S\OYatL+/C'8CeX@ReZP6explanation!2).h;'.4DnG_BsDRq%F51
     C350N22  C2020 09 16j:j#4CBnMYI`1('/Ex$mEdj?bv6h@*XCUff)y6C;!KY(4:(fO2\?F51

Station data:
(F51) Pan-STARRS 1, Haleakala  (N20.707235 W156.255910)  US/Hawaii.
   Observers N. Primak, A. Schultz, S. Watters, J. Thiel, T. Goggia. Measurer
   PS1 Science Consortium. 1.8-m Ritchey-Chrétien + CCD.
(G96) Mt. Lemmon Survey  (N32.442754 W110.788720)  US/Arizona.  Observers T.
   A. Pruyne, B. M. Africano, E. J. Christensen, G. A. Farneth, D. C. Fuls,
   A. R. Gibbs, A. D. Grauer, H. Gröller, J. A. Johnson, R. A. Kowalski, S.
   M. Larson, G. J. Leonard, D. Rankin, R. L. Seaman, F. C. Shelly. 1.5-m
   reflector + 10K CCD.
(V06) Catalina Sky Survey-Kuiper  (N32.416847 W110.732550)  US/Arizona.
   Observers T. A. Pruyne, B. M. Africano, E. J. Christensen, G. A. Farneth,
   D. C. Fuls, A. R. Gibbs, A. D. Grauer, H. Gröller, J. A. Johnson, R. A.
   Kowalski, S. M. Larson, G. J. Leonard, D. Rankin, R. L. Seaman, F. C.
   Shelly. 1.55-m reflector + CCD.

Orbital elements:  C350N22
   Perihelion 2020 Oct 10.519268 +/- 0.0602 TT = 12:27:44 (JD 2459133.019268)
Epoch 2020 Sep 16.0 TT = JDT 2459108.5   Earth MOID: 0.0842   Ma: 0.0359
M 350.66554104 +/- 0.08             (J2000 ecliptic)          AutoNEOCP
n   0.38069892 +/- 0.00359          Peri.   39.37395 +/- 0.07
a   1.88544970 +/- 0.0118           Node   340.70729 +/- 0.007
e   0.4346320 +/- 0.00335           Incl.    5.26991 +/- 0.030
P   2.59/945.61d           H 25.4   G  0.15   U  9.0  
q 1.06597282 +/- 0.000424    Q 2.70492658 +/- 0.0235
From 12 observations 2020 Sept. 10-16; mean residual 0".17
Residuals in arcseconds: 
200910 G96  .24-  .22-    200910 V06  .09-  .11+    200916 F51  .02+  .16+    
200910 G96  .02+  .01-    200910 V06  .22+  .32-    200916 F51  .09-  .22-    
200910 G96  .42+  .05-    200910 V06  .07-  .05+    200916 F51  .01+  .07+    
200910 G96  .18-  .31+    200910 V06  .08-  .13+    200916 F51  .06+  .01-    

Ephemerides (geocentric):
Date (UTC) HH   RA              Dec         delta   r     elong  mag " sig PA
---- -- -- --  -------------   -----------  ------ ------ -----  --- ---- ---
2020 09 17 00  23 56 57.391   +16 24 09.02  .09624 1.0965 160.8 21.5 1.01  40
2020 09 17 01  23 57 06.802   +16 28 43.31  .09617 1.0964 160.7 21.5 1.08  39
2020 09 17 02  23 57 16.232   +16 33 17.87  .09611 1.0963 160.7 21.5 1.15  38
2020 09 17 03  23 57 25.681   +16 37 52.71  .09604 1.0962 160.6 21.5 1.22  38
2020 09 17 04  23 57 35.150   +16 42 27.82  .09597 1.0961 160.6 21.5 1.30  37
2020 09 17 05  23 57 44.638   +16 47 03.20  .09591 1.0960 160.5 21.5 1.37  37
2020 09 17 06  23 57 54.145   +16 51 38.85  .09584 1.0959 160.5 21.5 1.45  36
2020 09 17 07  23 58 03.672   +16 56 14.76  .09577 1.0958 160.4 21.5 1.52  36
2020 09 17 08  23 58 13.218   +17 00 50.94  .09571 1.0957 160.3 21.5 1.60  35
2020 09 17 09  23 58 22.783   +17 05 27.39  .09564 1.0956 160.3 21.5 1.68  35
2020 09 17 10  23 58 32.368   +17 10 04.10  .09558 1.0954 160.2 21.5 1.76  35
2020 09 17 11  23 58 41.973   +17 14 41.07  .09551 1.0953 160.2 21.5 1.84  34
2020 09 17 12  23 58 51.597   +17 19 18.30  .09545 1.0952 160.1 21.5 1.92  34
2020 09 17 13  23 59 01.241   +17 23 55.78  .09539 1.0951 160.0 21.5 2.01  34
2020 09 17 14  23 59 10.904   +17 28 33.53  .09532 1.0950 160.0 21.5 2.09  34
2020 09 17 15  23 59 20.587   +17 33 11.53  .09526 1.0949 159.9 21.5 2.18  33
2020 09 17 16  23 59 30.290   +17 37 49.78  .09520 1.0948 159.9 21.5 2.26  33
2020 09 17 17  23 59 40.013   +17 42 28.29  .09513 1.0947 159.8 21.5 2.35  33
2020 09 17 18  23 59 49.756   +17 47 07.05  .09507 1.0946 159.7 21.5 2.44  33
2020 09 17 19  23 59 59.518   +17 51 46.05  .09501 1.0945 159.7 21.5 2.53  33
2020 09 17 20  00 00 09.301   +17 56 25.30  .09495 1.0944 159.6 21.5 2.62  32
2020 09 17 21  00 00 19.103   +18 01 04.80  .09488 1.0943 159.6 21.5 2.71  32
2020 09 17 22  00 00 28.926   +18 05 44.54  .09482 1.0942 159.5 21.5 2.80  32
2020 09 17 23  00 00 38.768   +18 10 24.53  .09476 1.0941 159.4 21.5 2.89  32
2020 09 18 00  00 00 48.631   +18 15 04.75  .09470 1.0940 159.4 21.5 2.99  32
2020 09 18 01  00 00 58.513   +18 19 45.22  .09464 1.0939 159.3 21.5 3.08  32
2020 09 18 02  00 01 08.416   +18 24 25.92  .09458 1.0938 159.3 21.5 3.18  31
2020 09 18 03  00 01 18.339   +18 29 06.86  .09452 1.0937 159.2 21.5 3.27  31
2020 09 18 04  00 01 28.283   +18 33 48.03  .09446 1.0936 159.1 21.5 3.37  31
2020 09 18 05  00 01 38.246   +18 38 29.44  .09440 1.0935 159.1 21.5 3.47  31
2020 09 18 06  00 01 48.230   +18 43 11.07  .09434 1.0934 159.0 21.5 3.57  31
2020 09 18 07  00 01 58.235   +18 47 52.94  .09428 1.0933 158.9 21.5 3.67  31
2020 09 18 08  00 02 08.260   +18 52 35.03  .09423 1.0932 158.9 21.5 3.78  31
2020 09 18 09  00 02 18.305   +18 57 17.35  .09417 1.0931 158.8 21.5 3.88  31
2020 09 18 10  00 02 28.371   +19 01 59.89  .09411 1.0930 158.8 21.5 3.99  31
2020 09 18 11  00 02 38.457   +19 06 42.65  .09405 1.0929 158.7 21.5 4.09  31
2020 09 18 12  00 02 48.564   +19 11 25.64  .09399 1.0928 158.6 21.5 4.20  31
2020 09 18 13  00 02 58.692   +19 16 08.84  .09394 1.0927 158.6 21.5 4.31  30
2020 09 18 14  00 03 08.841   +19 20 52.26  .09388 1.0926 158.5 21.5 4.41  30
2020 09 18 15  00 03 19.010   +19 25 35.90  .09382 1.0925 158.4 21.5 4.52  30
2020 09 18 16  00 03 29.200   +19 30 19.74  .09377 1.0924 158.4 21.5 4.63  30
2020 09 18 17  00 03 39.410   +19 35 03.80  .09371 1.0923 158.3 21.5 4.75  30
2020 09 18 18  00 03 49.642   +19 39 48.07  .09366 1.0922 158.3 21.5 4.86  30
2020 09 18 19  00 03 59.894   +19 44 32.55  .09360 1.0921 158.2 21.5 4.97  30
2020 09 18 20  00 04 10.168   +19 49 17.23  .09355 1.0920 158.1 21.5 5.09  30
2020 09 18 21  00 04 20.462   +19 54 02.12  .09349 1.0919 158.1 21.5 5.20  30
2020 09 18 22  00 04 30.778   +19 58 47.21  .09344 1.0918 158.0 21.5 5.32  30
2020 09 18 23  00 04 41.114   +20 03 32.50  .09338 1.0917 157.9 21.5 5.44  30